Regional Weather Roundup
Issued by NWS

Home | Current Version | Previous Version | Graphics & Text | Print | Product List | Glossary On
Versions: 1 2 3 4 5 6 7 8 9 10 11 12 13 14 15 16 17 18 19 20 21 22 23 24 25 26 27 28 29 30 31 32 33 34 35 36 37 38 39 40 41 42 43 44 45 46 47 48 49 50
000
ASUS45 KPSR 221310
RWRAZ

ARIZONA HOURLY REGIONAL WEATHER ROUNDUP
NATIONAL WEATHER SERVICE PHOENIX AZ
600 AM MST SUN JAN 22 2017

NOTE: FAIR INDICATES FEW OR NO CLOUDS BELOW 12,000 FEET WITH NO
SIGNIFICANT WEATHER AND/OR OBSTRUCTIONS TO VISIBILITY.

AZZ001>003-036-221400-
NORTHWEST ARIZONA

CITY           SKY/WX    TMP DP  RH WIND       PRES   REMARKS
BULLHEAD CITY  CLOUDY    50  39  66 SW3       30.07F
KINGMAN        CLOUDY    42  25  50 SE9       30.07F
$$

AZZ004>008-015-016-018-221400-
NORTH CENTRAL ARIZONA

CITY           SKY/WX    TMP DP  RH WIND       PRES   REMARKS
GRAND CANYON   MOCLDY     4   1  88 CALM      30.09S
WILLIAMS       CLOUDY    23  21  93 SE10      30.08S WCI  12
PRESCOTT       MOCLDY    32  27  81 SE3       30.14R
FLAGSTAFF      CLOUDY    24  22  91 W6        30.10F WCI  17
PAYSON         CLOUDY    30  28  93 CALM      30.17S
PAGE           CLOUDY    35  22  58 CALM      30.09R
$$

AZZ009>014-017-221400-
NORTHEAST ARIZONA

CITY           SKY/WX    TMP DP  RH WIND       PRES   REMARKS
WINSLOW        PTCLDY    25  23  92 E3        30.14R
SAINT JOHNS    PTCLDY    25  18  74 SW6       30.13R WCI  18
SHOW LOW       PTCLDY    21  19  93 S13       30.15R WCI   9
$$

AZZ023-221400-
GREATER PHOENIX AREA

CITY           SKY/WX    TMP DP  RH WIND       PRES   REMARKS
PHOENIX        MOCLDY    45  38  76 E7        30.15R
BUCKEYE        CLOUDY    41  41 100 NW6       30.18R
LUKE AFB       CLOUDY    43  42  99 NW8       30.17R
DEER VALLEY    PTCLDY    43  37  79 NE6       30.16R
SCOTTSDALE     PTCLDY    42  37  82 CALM      30.18R
MESA-FALCON    PTCLDY   N/A N/A N/A N8        30.14
MESA-GATEWAY   MOCLDY    43  37  81 SE7       30.18R
CHANDLER       PTCLDY    43  39  87 E7        30.18
$$

AZZ027-028-221400-
SOUTHWEST MARICOPA COUNTY AND PINAL COUNTY

CITY           SKY/WX    TMP DP  RH WIND       PRES   REMARKS
CASA GRANDE    MOCLDY    42  37  82 E5        30.18R
GILA BEND      MOCLDY    45  40  83 E3        30.15R
$$

AZZ503-504-507>509-221400-
SOUTHEAST ARIZONA

CITY           SKY/WX    TMP DP  RH WIND       PRES   REMARKS
TUCSON         MOCLDY    41  32  70 SE8       30.19R
DAVIS-MONTHAN  PTCLDY    39  33  79 SE5       30.19R
RYAN FIELD     CLEAR     37  34  87 E5        30.20  WCI  34
NOGALES        CLEAR     30  27  88 NE3       30.18R
SIERRA VISTA   MOCLDY    30  26  84 CALM      30.18R
DOUGLAS        PTCLDY    29  25  85 CALM      30.19R
SAFFORD        MOCLDY    32  30  92 E5        30.17F WCI  27
$$

AZZ020-021-025-026-031-221400-
SOUTHWEST ARIZONA

CITY           SKY/WX    TMP DP  RH WIND       PRES   REMARKS
YUMA           CLOUDY    51  42  71 NE6       30.11R
$$

CAZ031-033-041-043-047-048-061-221400-
SOUTHERN CALIFORNIA

CITY           SKY/WX    TMP DP  RH WIND       PRES   REMARKS
DOWNTOWN L.A.  CLOUDY    54  47  77 E6        30.08F
L.A. AIRPORT   LGT RAIN  52  49  89 E12       30.07F
SAN DIEGO      MOCLDY    54  44  69 CALM      30.11F
BURBANK        LGT RAIN  50  45  83 SE8       30.05F
ONTARIO        LGT RAIN  48  46  93 CALM      30.08F
RIVERSIDE      LGT RAIN  48  46  93 E5        30.09F
PALM SPRINGS   CLOUDY    52  43  71 NE7       30.10R
EL CENTRO NAS  CLOUDY    50  42  74 CALM      30.11S
IMPERIAL       CLOUDY    51  42  71 S3        30.09R
BLYTHE         CLOUDY    50  44  80 SE5       30.10S
NEEDLES        CLOUDY    51  41  68 SW5       30.06F
$$

NVZ020-UTZ003-221400-
SOUTHERN NEVADA-UTAH

CITY           SKY/WX    TMP DP  RH WIND       PRES   REMARKS
LAS VEGAS      LGT RAIN  48  35  60 S8        30.01R
SALT LAKE CITY PTCLDY    28  22  78 SE14      29.95F WCI  17
$$

NMZ009-TXZ055-221400-
NEW MEXICO-WEST TEXAS

CITY           SKY/WX    TMP DP  RH WIND       PRES   REMARKS
ALBUQUERQUE    PTCLDY    31  21  66 S7        30.07R WCI  24
EL PASO        CLEAR     39  25  57 W13       30.08R WCI  31
$$


........................KEY........................
SKY/WX - SKY CONDITION/WEATHER
TMP    - TEMPERATURE IN FAHRENHEIT
DP     - DEW POINT IN FAHRENHEIT
RH     - RELATIVE HUMIDITY IN PERCENT
WIND   - DIRECTION AND SPEED IN MILES PER HOUR (MPH)
VRB    - VARIABLE WIND DIRECTION
PRES   - MEAN SEA LEVEL PRESSURE IN INCHES OF MERCURY
         F - FALLING PRESSURE   R - RISING PRESSURE
         S - STEADY PRESSURE
VSB    - VISIBILITY IN MILES
HX     - HEAT INDEX IN FAHRENHEIT
WCI    - WIND CHILL INDEX IN FAHRENHEIT
TC     - TEMPERATURE IN CELSIUS WHICH IS ALSO KNOWN AS
         TEMPERATURE IN CENTIGRADE
AFB    - AIR FORCE BASE
         LUKE AFB IS LUKE AIR FORCE BASE
         DAVIS-MONTHAN IS DAVIS-MONTHAN AIR FORCE BASE
NAS    - NAVAL AIR STATION
         EL CENTRO NAS IS EL CENTRO NAVAL AIR STATION
N/A    - NOT AVAILABLE




USA.gov is the U.S. government's official web portal to all federal, state and local government web resources and services.